Meteo pe oră la Bolshie Picherki

Astăzi, 19 Mai, Miercuri

Timp Temperatura Precipitaţii Vânt Presiune Umiditate
00:00 +20°C° 0 mm 4 m/s 753 mmHg 65%
01:00 +20°C° 0 mm 4 m/s 753 mmHg 66%
02:00 +19°C° 0 mm 4 m/s 753 mmHg 66%
03:00 +19°C° 0 mm 4 m/s 753 mmHg 67%
04:00 +19°C° 0 mm 4 m/s 753 mmHg 67%
05:00 +20°C° 0 mm 4 m/s 753 mmHg 66%
06:00 +20°C° 0 mm 5 m/s 753 mmHg 65%
07:00 +22°C° 0 mm 5 m/s 753 mmHg 60%
08:00 +23°C° 0 mm 5 m/s 753 mmHg 54%
09:00 +26°C° 0 mm 6 m/s 753 mmHg 48%
10:00 +27°C° 0 mm 6 m/s 753 mmHg 45%
11:00 +28°C° 0 mm 6 m/s 753 mmHg 41%
12:00 +29°C° 0 mm 6 m/s 753 mmHg 37%
13:00 +29°C° 0 mm 6 m/s 753 mmHg 37%
14:00 +29°C° 0 mm 6 m/s 753 mmHg 37%
15:00 +29°C° 0 mm 6 m/s 753 mmHg 37%
16:00 +28°C° 0 mm 6 m/s 753 mmHg 42%
17:00 +27°C° 0 mm 5 m/s 753 mmHg 47%
18:00 +26°C° 0 mm 5 m/s 753 mmHg 51%
19:00 +23°C° 0 mm 5 m/s 753 mmHg 55%
20:00 +22°C° 0 mm 4 m/s 753 mmHg 59%
21:00 +20°C° 0 mm 4 m/s 754 mmHg 63%
22:00 +20°C° 0 mm 5 m/s 754 mmHg 62%
23:00 +19°C° 0 mm 5 m/s 754 mmHg 61%

Mâine, 20 Mai, Joi

Timp Temperatura Precipitaţii Vânt Presiune Umiditate
00:00 +19°C° 0 mm 5 m/s 754 mmHg 60%
01:00 +17°C° 0 mm 5 m/s 754 mmHg 60%
02:00 +17°C° 0 mm 5 m/s 754 mmHg 61%
03:00 +16°C° 0 mm 5 m/s 754 mmHg 62%
04:00 +16°C° 0 mm 5 m/s 754 mmHg 62%
05:00 +17°C° 0 mm 5 m/s 754 mmHg 62%
06:00 +17°C° 0 mm 6 m/s 754 mmHg 62%
07:00 +20°C° 0 mm 6 m/s 754 mmHg 58%
08:00 +21°C° 0 mm 6 m/s 754 mmHg 53%
09:00 +23°C° 0 mm 7 m/s 754 mmHg 49%
10:00 +24°C° 0 mm 7 m/s 754 mmHg 45%
11:00 +24°C° 0 mm 7 m/s 754 mmHg 41%
12:00 +26°C° 0 mm 7 m/s 754 mmHg 37%
13:00 +26°C° 0 mm 7 m/s 753 mmHg 36%
14:00 +26°C° 0 mm 7 m/s 753 mmHg 35%
15:00 +27°C° 0 mm 7 m/s 753 mmHg 33%
16:00 +26°C° 0 mm 6 m/s 753 mmHg 38%
17:00 +25°C° 0 mm 5 m/s 752 mmHg 42%
18:00 +23°C° 0 mm 5 m/s 752 mmHg 47%
19:00 +21°C° 0 mm 5 m/s 752 mmHg 50%
20:00 +20°C° 0 mm 4 m/s 752 mmHg 52%
21:00 +18°C° 0 mm 4 m/s 752 mmHg 55%
22:00 +17°C° 0 mm 4 m/s 752 mmHg 56%
23:00 +17°C° 0 mm 4 m/s 752 mmHg 57%

Poimâine, 21 Mai, Vineri

Timp Temperatura Precipitaţii Vânt Presiune Umiditate
00:00 +16°C° 0 mm 3 m/s 751 mmHg 58%
01:00 +16°C° 0 mm 3 m/s 751 mmHg 59%
02:00 +14°C° 0 mm 3 m/s 751 mmHg 61%
03:00 +14°C° 0 mm 2 m/s 751 mmHg 63%
04:00 +14°C° 0 mm 3 m/s 751 mmHg 64%
05:00 +16°C° 0 mm 3 m/s 751 mmHg 65%
06:00 +17°C° 0 mm 3 m/s 751 mmHg 66%
07:00 +17°C° 0.1 mm 4 m/s 751 mmHg 69%
08:00 +18°C° 0.1 mm 4 m/s 751 mmHg 71%
09:00 +18°C° 0.1 mm 4 m/s 751 mmHg 74%
10:00 +19°C° 0.5 mm 4 m/s 751 mmHg 73%
11:00 +19°C° 0.5 mm 3 m/s 751 mmHg 72%
12:00 +20°C° 0.5 mm 3 m/s 751 mmHg 71%
13:00 +21°C° 0.9 mm 3 m/s 751 mmHg 66%
14:00 +21°C° 0.9 mm 4 m/s 751 mmHg 62%
15:00 +22°C° 0.9 mm 4 m/s 751 mmHg 58%
16:00 +22°C° 0.4 mm 4 m/s 751 mmHg 61%
17:00 +21°C° 0.4 mm 4 m/s 751 mmHg 65%
18:00 +20°C° 0.4 mm 4 m/s 752 mmHg 68%
19:00 +19°C° 0 mm 4 m/s 752 mmHg 72%
20:00 +18°C° 0 mm 3 m/s 752 mmHg 77%
21:00 +17°C° 0 mm 3 m/s 753 mmHg 81%
22:00 +16°C° 0 mm 3 m/s 753 mmHg 82%
23:00 +16°C° 0 mm 2 m/s 753 mmHg 84%

22 Mai, Sâmbătă

Timp Temperatura Precipitaţii Vânt Presiune Umiditate
00:00 +15°C° 0 mm 2 m/s 753 mmHg 86%
01:00 +15°C° 0 mm 2 m/s 754 mmHg 87%
02:00 +14°C° 0 mm 2 m/s 754 mmHg 88%
03:00 +14°C° 0 mm 2 m/s 754 mmHg 89%
04:00 +15°C° 0 mm 2 m/s 755 mmHg 85%
05:00 +16°C° 0 mm 2 m/s 755 mmHg 81%
06:00 +17°C° 0 mm 2 m/s 755 mmHg 77%
07:00 +18°C° 0 mm 2 m/s 755 mmHg 71%
08:00 +19°C° 0 mm 3 m/s 755 mmHg 65%
09:00 +21°C° 0 mm 3 m/s 756 mmHg 58%
10:00 +21°C° 0 mm 3 m/s 756 mmHg 54%
11:00 +22°C° 0 mm 4 m/s 756 mmHg 49%
12:00 +23°C° 0 mm 4 m/s 756 mmHg 45%
13:00 +23°C° 0 mm 4 m/s 756 mmHg 44%
14:00 +25°C° 0 mm 4 m/s 756 mmHg 44%
15:00 +25°C° 0 mm 4 m/s 756 mmHg 43%
16:00 +24°C° 0 mm 3 m/s 756 mmHg 48%
17:00 +24°C° 0 mm 2 m/s 756 mmHg 53%
18:00 +23°C° 0 mm 2 m/s 756 mmHg 57%
19:00 +21°C° 0 mm 2 m/s 756 mmHg 60%
20:00 +19°C° 0 mm 2 m/s 757 mmHg 63%
21:00 +18°C° 0 mm 2 m/s 757 mmHg 65%
22:00 +18°C° 0 mm 2 m/s 757 mmHg 66%
23:00 +17°C° 0 mm 2 m/s 757 mmHg 67%

23 Mai, Duminică

Timp Temperatura Precipitaţii Vânt Presiune Umiditate
00:00 +17°C° 0 mm 2 m/s 756 mmHg 68%
01:00 +17°C° 0 mm 2 m/s 756 mmHg 69%
02:00 +16°C° 0 mm 2 m/s 757 mmHg 70%
03:00 +16°C° 0 mm 1 m/s 757 mmHg 71%
04:00 +17°C° 0 mm 2 m/s 757 mmHg 70%
05:00 +18°C° 0 mm 2 m/s 757 mmHg 69%
06:00 +19°C° 0 mm 2 m/s 757 mmHg 67%
07:00 +20°C° 0 mm 2 m/s 757 mmHg 63%
08:00 +23°C° 0 mm 2 m/s 757 mmHg 58%
09:00 +24°C° 0 mm 3 m/s 757 mmHg 54%
10:00 +25°C° 0 mm 3 m/s 757 mmHg 52%
11:00 +26°C° 0 mm 3 m/s 757 mmHg 50%
12:00 +27°C° 0 mm 3 m/s 757 mmHg 49%
13:00 +28°C° 0 mm 3 m/s 756 mmHg 47%
14:00 +28°C° 0 mm 4 m/s 756 mmHg 45%
15:00 +29°C° 0 mm 4 m/s 756 mmHg 43%
16:00 +28°C° 0 mm 4 m/s 755 mmHg 48%
17:00 +27°C° 0 mm 3 m/s 755 mmHg 53%
18:00 +26°C° 0 mm 3 m/s 755 mmHg 58%
19:00 +25°C° 0 mm 3 m/s 755 mmHg 60%
20:00 +24°C° 0 mm 3 m/s 755 mmHg 62%
21:00 +22°C° 0 mm 4 m/s 755 mmHg 64%
22:00 +21°C° 0 mm 4 m/s 755 mmHg 64%
23:00 +21°C° 0 mm 4 m/s 754 mmHg 64%

24 Mai, Luni

Timp Temperatura Precipitaţii Vânt Presiune Umiditate
00:00 +20°C° 0 mm 4 m/s 754 mmHg 64%
01:00 +20°C° 0 mm 4 m/s 754 mmHg 65%
02:00 +20°C° 0 mm 5 m/s 754 mmHg 65%
03:00 +20°C° 0 mm 5 m/s 753 mmHg 65%
04:00 +20°C° 0 mm 5 m/s 753 mmHg 66%
05:00 +20°C° 0 mm 5 m/s 753 mmHg 66%
06:00 +21°C° 0 mm 5 m/s 753 mmHg 67%
07:00 +23°C° 0 mm 5 m/s 753 mmHg 60%
08:00 +26°C° 0 mm 5 m/s 753 mmHg 53%
09:00 +28°C° 0 mm 5 m/s 753 mmHg 46%
10:00 +30°C° 0 mm 5 m/s 753 mmHg 40%
11:00 +33°C° 0 mm 6 m/s 753 mmHg 34%
12:00 +35°C° 0 mm 7 m/s 753 mmHg 29%
13:00 +35°C° 0 mm 7 m/s 752 mmHg 28%
14:00 +36°C° 0 mm 7 m/s 752 mmHg 27%
15:00 +36°C° 0 mm 7 m/s 752 mmHg 27%
16:00 +34°C° 0 mm 6 m/s 752 mmHg 31%
17:00 +33°C° 0 mm 5 m/s 752 mmHg 35%
18:00 +30°C° 0 mm 4 m/s 752 mmHg 40%
19:00 +28°C° 0 mm 4 m/s 752 mmHg 42%
20:00 +27°C° 0 mm 4 m/s 752 mmHg 44%
21:00 +25°C° 0 mm 3 m/s 752 mmHg 46%
22:00 +24°C° 0 mm 3 m/s 752 mmHg 46%
23:00 +24°C° 0 mm 3 m/s 752 mmHg 45%
Arată mai mult

Formular de consimțământ

Meteoprog și furnizorii noștri de servicii pot stoca și accesa date personale, precum cookies, identificatori de dispozitiv sau alte tehnologii similare pe dispozitivul dumneavoastră și procesa astfel de date pentru a personaliza conținutul și reclamele, dar și pentru a oferi caracteristici de social media și pentru a analiza traficul.

  • Stocarea și/sau accesarea informațiilor pe dispozitivul dumneavoastră

    Cookies, identificatori de dispozitiv sau alte informații pot fi stocate sau accesate pe dispozitiv în scopurile indicate mai sus.

  • Reclame și conținut personalizat, evaluarea reclamelor și a conținutului, informații despre audiențe și dezvoltarea produselor

    Reclamele și conținutul pot fi personalizate pe baza unui profil. Pot fi adăugate date suplimentare pentru a personaliza mai bine reclamele și conținutul. Performanța reclamelor și conținutului poate fi măsurată. Pot fi obținute informații despre utilizatorii care au văzut reclamele și conținutul. Aceste date pot fi utilizate pentru a dezvolta sau îmbunătăți experiența utilizatorilor, sistemele și software-ul.

Dând clic pe ‘Sunt de acord’, permiteți utilizarea cookie-urilor menționate, a identificatorilor de dispozitiv, balizelor web sau altor tehnologii similare. Setările pot fi modificate din browser-ul dispozitivului dumneavoastră.

În anumite scopuri, interesele legitime pot prima asupra consimțământului. Puteți citi mai multe informații în acest sens în Politica privind Confidențialitatea Datelor și Cookie.